STARLINK-2222 (48572 NORAD) Tracking and Keplerian Element Data

This shows tracking and keplerian element data for the satellite.

Feedback or suggestion? Click here.




ElementValue
Catalog48572
NameSTARLINK-2222
Epoch Orbit1119
Epoch Day210.33989125
Epoch Year2021
RAAN142.9466
Inclination53.0548
Eccentricity0.0001686
Argument of Perigee76.7821
Mean Anonmoly283.3356
Mean Motion15.06394689
Decay Rate-4.87E-06
L11 48572U 21041V 21210.33989125 -.00000487 00000-0 -13815-4 0 9993
L22 48572 53.0548 142.9466 0001686 76.7821 283.3356 15.06394689 11190

Live tracking and technical data element details for STARLINK-2222 (NORAD 48572). STARLINK-2222 can be tracked NOW for your location showing map with azimuth and elevation plus other details from your city location.

Track the satellite on the map from your city or location and see movement details for azimuth, elevation, latitude, longitude, range, height, and movement on the map or in text.







IsCatalogInMostPopularTable: catalog: 48572, numindb: 21
Update: records affected: 1



GetName: 48572 STARLINK-2222

Hit Count: updated at: Sat, 31 Jul 2021 15:16:51 GMT